• MPC Preparation (Info)

  • MPEC 2014-B77 : 2014 BX43

    The following Minor Planet Electronic Circular may be linked-to from your own Web pages, but must not otherwise be redistributed electronically.

    A form allowing access to any MPEC is at the bottom of this page.


    Read MPEC 2014-B76 Read MPEC 2014-B78


    M.P.E.C. 2014-B77                                Issued 2014 Jan. 29, 22:11 UT
    
         The Minor Planet Electronic Circulars contain information on unusual
             minor planets and routine data on comets.  They are published
       on behalf of Commission 20 of the International Astronomical Union by the
              Minor Planet Center, Smithsonian Astrophysical Observatory,
                              Cambridge, MA 02138, U.S.A.
    
                 Prepared using the Tamkin Foundation Computer Network
    
                                  MPC@CFA.HARVARD.EDU
                URL https://www.minorplanetcenter.net/    ISSN 1523-6714
    
                                       2014 BX43
    
    Observations:
         K14B43X* C2014 01 28.41178 09 45 48.19 +29 32 11.3          20.0 VqEB077G96
         K14B43X  C2014 01 28.42099 09 45 59.47 +29 33 20.1          20.3 VqEB077G96
         K14B43X  C2014 01 28.42560 09 46 05.08 +29 33 54.5          20.0 VqEB077G96
         K14B43X  C2014 01 28.52180 09 48 06.36 +29 45 47.5          19.7 VqEB077G96
         K14B43X  C2014 01 28.52218 09 48 06.84 +29 45 50.5          19.9 VqEB077G96
         K14B43X  C2014 01 28.52256 09 48 07.34 +29 45 53.4          19.4 VqEB077G96
         K14B43X  C2014 01 28.54693 09 48 39.32 +29 48 53.7          19.9 VqEB077G96
         K14B43X  C2014 01 28.54731 09 48 39.81 +29 48 56.1          20.3 VqEB077G96
         K14B43X  C2014 01 28.54769 09 48 40.22 +29 48 58.6          20.9 VqEB077G96
         K14B43X  C2014 01 28.54807 09 48 40.76 +29 49 02.1          20.4 VqEB077G96
         K14B43X KC2014 01 29.32902510 09 32.54 +31 41 00.2          20.2 VrEB077H21
         K14B43X KC2014 01 29.33259810 09 39.02 +31 41 32.9          19.8 VrEB077H21
         K14B43X KC2014 01 29.33619810 09 45.51 +31 42 05.3          19.9 VrEB077H21
         K14B43X  C2014 01 29.44550 10 13 11.13 +31 59 33.0          19.4 VqEB077G96
         K14B43X  C2014 01 29.44600 10 13 11.76 +31 59 36.4          19.7 VqEB077G96
         K14B43X  C2014 01 29.44649 10 13 12.91 +31 59 41.8          19.1 VqEB077G96
         K14B43X  C2014 01 29.44699 10 13 13.83 +31 59 46.3          19.8 VqEB077G96
    
    Observer details:
    G96 Mt. Lemmon Survey.  Observers A. R. Gibbs, R. E. Hill.  Measurers
        E. J. Christensen, A. R. Gibbs, A. D. Grauer, R. E. Hill, J. A. Johnson,
        R. A. Kowalski, S. M. Larson, F. C. Shelly.  1.5-m reflector + CCD.
    H21 Astronomical Research Observatory, Westfield.  Observer R. Holmes.
        Measurers S. Foglia, L. Buzzi, H. Devore, T. Linder, T. Lister,
        T. Vorobjov.  0.61-m f/4.0 astrograph + CCD.
    
    Orbital elements:
    2014 BX43                                                Earth MOID = 0.0171 AU
    Epoch 2013 Nov. 4.0 TT = JDT 2456600.5                  MPC
    M 325.29475              (2000.0)            P               Q
    n   0.26807237     Peri.   81.43991     -0.96392934     +0.26231669
    a   2.3821440      Node   113.75786     -0.25944032     -0.88824277
    e   0.6711255      Incl.    2.82178     -0.05942177     -0.37711369
    P   3.68           H   25.5           G   0.15           U   8
    Residuals in seconds of arc
    140128 G96  0.2-  0.2-    140128 G96  0.5+  0.2+    140129 H21  0.7+  0.5-
    140128 G96  0.4+  0.0     140128 G96  0.3+  0.2-    140129 G96  1.6+  0.4+
    140128 G96  0.0   0.0     140128 G96  0.9-  0.5-    140129 G96  2.4-  0.8-
    140128 G96  0.2+  0.0     140128 G96  0.4-  0.2+    140129 G96  0.5+  0.0
    140128 G96  0.0   0.2+    140129 H21  0.9-  0.7+    140129 G96  0.3+  0.1-
    140128 G96  0.1+  0.3+    140129 H21  0.2+  0.3+
    
    Ephemeris:
    2014 BX43                a,e,i = 2.38, 0.67, 3                   q = 0.7834
    Date    TT    R. A. (2000) Decl.     Delta      r     Elong.  Phase     V
    2013 12 30    08 12 13.4 +18 14 20   0.3603  1.3226   157.0    16.9    24.8
    ...
    2014 01 14    08 26 19.3 +19 40 09   0.1911  1.1719   169.4     8.9    22.9
    ...
    2014 01 22    08 45 25.2 +22 21 23   0.1101  1.0934   172.6     6.7    21.4
    ...
    2014 01 28    09 37 40.7 +28 42 40   0.05390 1.0366   163.3    15.8    20.1
    2014 01 29    10 00 00.2 +30 52 02   0.04534 1.0273   158.7    20.4    19.9
    2014 01 30    10 33 51.0 +33 31 21   0.03738 1.0182   151.8    27.3    19.6
    ...
    2014 02 05    17 55 24.0 +07 39 44   0.03675 0.9650    54.4   123.8    23.4
    ...
    2014 02 13    19 22 55.6 -08 46 21   0.1085  0.9008    35.2   140.8    27.4
    ...
    2014 02 28    19 57 24.9 -13 09 43   0.2604  0.8118    40.9   127.0    27.5
    
    A. U. Tomatic                (C) Copyright 2014 MPC           M.P.E.C. 2014-B77
    

    Read MPEC 2014-B76 Read MPEC 2014-B78


    MPEC number:

    Enter an MPEC number in one of the following forms:

    • 1997-B01 (the full form)
    • J97B01 (the packed version of the full form)
    • B01 (the abbreviated form)